STARLINK-36094

Last updated on Mon Dec 15 2025 00:02:12 GMT+0000 (Coordinated Universal Time)

1 66851U 25281D 25348.25003472 -.01185892 00000+0 -48887-2 0 9991 2 66851 43.0005 113.0233 0001429 272.7281 254.6650 15.87307853 1644
UTC large
Height (km)
Speed (km/s)
/
Latitude / Longitude
Inclination (degrees)
Orbital Period (minutes)
Azimuth
Elevation
Range (km)
Doppler Factor

Next 0 passes for location: London (51.5072 / 0.1276)

Sorry there are no passes over London.